AirNav   Air Wisconsin pilot careers
 
 1523 users online  

3S2 Swans Field Airport
Dixfield, Maine, USA

GOING TO DIXFIELD?


FAA INFORMATION EFFECTIVE 06 DECEMBER 2018

Location

FAA Identifier: 3S2
Lat/Long: 44-30-50.9000N / 070-24-24.5000W
44-30.848333N / 070-24.408333W
44.5141389 / -70.4068056
(estimated)
Elevation: 418.4 ft. / 128 m (estimated)
Variation: 18W (1985)
From city: 3 miles SE of DIXFIELD, ME
Time zone: UTC -5 (UTC -4 during Daylight Saving Time)
Zip code: 04224

Airport Operations

Airport use: Open to the public
Activation date: 05/1971
Control tower: no
ARTCC: BOSTON CENTER
FSS: BANGOR FLIGHT SERVICE STATION
NOTAMs facility: BGR (NOTAM-D service available)
Attendance: UNATNDD
Wind indicator: yes
Segmented circle: no

Airport Communications

CTAF: 122.9
WX AWOS-AV at 0B1 (18 nm W): 122.9 (207-512-2516)
  • CLNC DLVY THRU FLIGHT SERVICES 1-800-WX-BRIEF.

Nearby radio navigation aids

VOR radial/distance  VOR name  Freq  Var
AUGr312/28.6AUGUSTA VOR/DME111.4018W
BMLr119/34.1BERLIN VOR/DME110.4017W

 
NDB name  Hdg/Dist  Freq  Var  ID
RANGELEY168/29.222118WRQM .-. --.- --

Airport Services

Parking: hangars and tiedowns
Airframe service: NONE
Powerplant service: NONE

Runway Information

Runway 12/30

Dimensions: 1808 x 40 ft. / 551 x 12 m
Surface: turf, in good condition
RUNWAY 12  RUNWAY 30
Latitude: 44-30.924372N44-30.773688N
Longitude: 070-24.588318W070-24.229843W
Elevation: 417.9 ft.418.4 ft.
Traffic pattern: leftleft
Runway heading: 139 magnetic, 121 true319 magnetic, 301 true
Touchdown point: yes, no lightsyes, no lights
Obstructions: 55 ft. trees, 65 ft. right of centerline12 ft. trees

Airport Ownership and Management from official FAA records

Ownership: Privately-owned
Owner: ROYAL SWAN
1308 CANTON PT. ROAD
DIXFIELD, ME 04224
Phone (207) 491-5025
Manager: ROYAL SWAN
1308 CANTON PT. ROAD
DIXFIELD, ME 04224
Phone (207) 491-5025

Airport Operational Statistics

Aircraft based on the field: 6
Single engine airplanes: 6
    
Aircraft operations: avg 43/month *
98% local general aviation
2% transient general aviation
* for 12-month period ending 09 August 2016

Additional Remarks

CONTACT AMGR FOR RY CONDITIONS IN WINTER @ 207-491-5025
ACCESS ROADWAY 45 FT FM RY 12/30, CNTRLN ALONG NORTH SIDE.
PVT ROADWAY (+10 FEET) CROSSES RY 12/30 APRX 700 FT FM NW THLD.
WILDLIFE ON OR IN VICINITY OF AIRPORT
RWY 12 +40-50 TREES FM THRESHOLD TO 400' TO THE SE, 35'L OF CENTERLINE
RUNWAY 30, +4" BERM 0' FM END OF RWY ACROSS RWY BENEATH TREES.
FOR CD CTC PORTLAND APCH AT 207-874-7320. IF UNA, CTC FSS.

Instrument Procedures

There are no published instrument procedures at 3S2.

Some nearby airports with instrument procedures:

81B - Oxford County Regional Airport (22 nm S)
KOWK - Central Maine Airport of Norridgewock (26 nm NE)
KLEW - Auburn/Lewiston Municipal Airport (28 nm S)
M57 - Rangeley Lake Seaplane Base (29 nm N)
KAUG - Augusta State Airport (29 nm SE)
 
Loc | Ops | Rwys | IFR | FBO | Links
Com | Nav | Svcs | Stats | Notes

Auburn-Lewiston Municipal Airport
 
Area around 3S2 (Swans Field Airport)
 
Road maps at: MapQuest Bing Google
 
Aerial photo
WARNING: Photo may not be current or correct
Aerial photo of 3S2 (Swans Field Airport)
Do you have a better or more recent aerial photo of Swans Field Airport that you would like to share? If so, please send us your photo.

 
Sectional chart

 
Airport distance calculator
Flying to Swans Field Airport? Find the distance to fly.

From to 3S2

Sunrise and sunset
Times for 12-Dec-2018
 Local
(UTC-5)
 Zulu
(UTC)
Morning civil twilight06:3711:37
Sunrise07:1012:10
Sunset16:0121:01
Evening civil twilight16:3421:34

Current date and time
Zulu (UTC)  12-Dec-2018 15:38:12
Local (UTC-5)  12-Dec-2018 10:38:12
 
METAR
KAUG 
29nm SE 
121512Z AUTO 01015G18KT 10SM FEW017 SCT030 M08/M12 A3002 RMK AO2 T10781122
KLEW 
29nm S 
121456Z AUTO 02009KT 10SM CLR M06/M09 A3002 RMK AO2 SNE37 SLP182 P0000 60000 T10611094 51025 FZRANO
K8B0 
30nm NW 
121515Z AUTO 03006KT 10SM BKN025 OVC031 M08/M13 A2993 RMK AO2
KWVL 
32nm E 
121456Z AUTO 10SM FEW017 SCT044 BKN070 M07/M11 A3000 RMK AO2 SNE25 SLP193 P0000 60000 T10671111 51025 FZRANO $
KBML 
33nm W 
121459Z AUTO 32011G16KT 7SM SCT029 BKN037 OVC049 M07/M12 A2998 RMK AO2 SNE55 P0000 T10671122
KIZG 
39nm SW 
121454Z AUTO 00000KT 10SM SCT055 M05/M09 A2999 RMK AO2 SLP166 T10501094 51023
KMWN 
40nm W 
121459Z 32046G59KT 1/16SM -SHSN FZFG BLSN VV001 M19/M19 RMK VRY LGT ICG
KCWN 
44nm SW 
121458Z AUTO 00000KT 10SM FEW190 08/M25 A2975 RMK AO2 SLP963 T00751249 57010 $
KIWI 
44nm SE 
121453Z AUTO VRB06KT 10SM SCT065 BKN090 M06/M10 A3003 RMK AO2 SLP170 60000 T10561100 51026
KHIE 
50nm W 
121452Z AUTO 33003KT 9SM OVC019 M07/M10 A3001 RMK AO2 SLP187 60000 T10671100 51025
TAF
KAUG 
29nm SE 
121400Z 1214/1312 36009KT P6SM -SHSN SCT030 BKN045 OVC080 TEMPO 1214/1216 1 1/2SM -SHSN BKN025 OVC040 FM121600 34010G18KT P6SM SCT050 BKN090 FM121800 34012KT P6SM SCT100 FM122300 34006KT P6SM SKC
NOTAMs
Click for the latest NOTAMs
NOTAMs are issued by the DoD/FAA and will open in a separate window not controlled by AirNav.

 

 
 

Would you like to see your business listed on this page?

 If your business provides an interesting product or service to pilots, flight crews, aircraft, or users of the Swans Field Airport, you should consider listing it here.  To start the listing process, click on the button below
 
Add a business
 

Other Pages about Swans Field Airport

Update a link
 
Copyright © AirNav, LLC. All rights reserved. Privacy Policy  Contact